User: anonymous
Location: Unspecified
(0.0000°N, 0.0000°E)
Time: 03:13:02
(UTC+00:00)
Language:

OPTUS D1 - Orbit

View from above orbital plane
View from above orbital plane
View from above satellite
View from above satellite

Ground track
Ground track

The orbit data is extracted from the following two-line orbital elements,

1 29495U 06043B   14293.59874792 -.00000117  00000-0  10000-3 0  6139
2 29495 000.0614 063.3283 0003571 143.5117 197.7018 01.00272338 29454
Epoch (UTC): 20 October 2014 14:22:11
Eccentricity: 0.0003571
inclination: 0.0614°
perigee height: 35771 km
apogee height: 35801 km
right ascension of ascending node: 63.3283°
argument of perigee: 143.5117°
revolutions per day: 1.00272338
mean anomaly at epoch: 197.7018°
orbit number at epoch: 2945

The dashed part of the orbit path shows where the satellite is in the earth's shadow,  

DLR